QPF
0.05 0.05 0.04 0.04 0.06 0.05 0.06 0.06 0.07 0.07 0.06 0.04 0.04 0.02 0.02 0.02 0.02 0.01 0.01 0.01 0.01 0.01 0.01 0.01 0.01 0.01 0.02 0.02 0.02 0.03 0.05 0.04 0.03 0.02 0.03 0.03 0.03 0.02
0.05 0.05 0.04 0.04 0.05 0.06 0.07 0.06 0.06 0.06 0.05 0.04 0.04 0.02 0.02 0.02 0.01 0.01 0.01 0.01 0.01 0.01 0.01 0.01 0.01 0.01 0.01 0.01 0.01 0.02 0.03 0.04 0.03 0.03 0.04 0.04 0.04 0.03
0.06 0.06 0.06 0.06 0.07 0.07 0.07 0.07 0.07 0.07 0.06 0.04 0.04 0.04 0.05 0.04 0.03 0.04 0.03 0.02 0.01 0.01 0.01 0.01 0.01 0.01 0.01 0.02 0.02 0.03 0.04 0.05 0.04 0.03 0.03 0.04 0.03 0.03
0.06 0.08 0.08 0.07 0.08 0.07 0.07 0.08 0.08 0.08 0.07 0.06 0.05 0.05 0.07 0.05 0.04 0.03 0.02 0.01 0.01 0.01 0.01 0.00 0.00 0.01 0.01 0.01 0.02 0.04 0.04 0.05 0.06 0.06 0.05 0.05 0.05 0.05
0.06 0.07 0.06 0.07 0.06 0.06 0.06 0.06 0.07 0.07 0.07 0.06 0.04 0.04 0.04 0.04 0.04 0.03 0.02 0.02 0.01 0.01 0.01 0.00 0.00 0.01 0.01 0.01 0.02 0.03 0.03 0.03 0.04 0.05 0.05 0.05 0.05 0.04
0.06 0.05 0.05 0.05 0.04 0.05 0.04 0.05 0.05 0.06 0.07 0.06 0.05 0.04 0.04 0.04 0.05 0.05 0.04 0.04 0.03 0.01 0.01 0.01 0.01 0.01 0.01 0.01 0.01 0.01 0.02 0.02 0.03 0.04 0.05 0.06 0.05 0.05
0.06 0.05 0.05 0.04 0.04 0.04 0.03 0.03 0.04 0.05 0.06 0.05 0.05 0.04 0.04 0.04 0.04 0.04 0.05 0.05 0.05 0.03 0.03 0.02 0.01 0.01 0.01 0.01 0.01 0.02 0.01 0.02 0.02 0.03 0.04 0.05 0.06 0.06
0.06 0.05 0.05 0.05 0.05 0.05 0.04 0.03 0.04 0.04 0.05 0.05 0.05 0.05 0.04 0.04 0.04 0.04 0.05 0.05 0.05 0.04 0.05 0.04 0.02 0.02 0.02 0.02 0.01 0.01 0.01 0.02 0.01 0.02 0.03 0.04 0.04 0.06
0.06 0.06 0.05 0.05 0.06 0.05 0.05 0.04 0.03 0.04 0.05 0.05 0.05 0.05 0.04 0.04 0.04 0.04 0.04 0.04 0.04 0.05 0.06 0.05 0.05 0.05 0.03 0.03 0.03 0.03 0.02 0.02 0.01 0.01 0.01 0.02 0.03 0.03
0.05 0.06 0.07 0.06 0.05 0.05 0.05 0.04 0.03 0.04 0.05 0.04 0.05 0.05 0.05 0.04 0.04 0.04 0.04 0.05 0.04 0.04 0.06 0.05 0.05 0.06 0.04 0.05 0.05 0.03 0.03 0.02 0.02 0.02 0.01 0.01 0.02 0.02
0.07 0.07 0.06 0.07 0.05 0.05 0.05 0.04 0.04 0.04 0.04 0.05 0.05 0.05 0.05 0.05 0.05 0.05 0.05 0.06 0.05 0.04 0.06 0.06 0.05 0.05 0.05 0.06 0.04 0.03 0.03 0.03 0.02 0.02 0.02 0.01 0.02 0.02
0.06 0.05 0.05 0.05 0.03 0.03 0.03 0.04 0.03 0.03 0.04 0.05 0.05 0.06 0.07 0.09 0.08 0.06 0.07 0.07 0.06 0.05 0.05 0.06 0.05 0.06 0.06 0.06 0.05 0.04 0.03 0.03 0.02 0.02 0.02 0.01 0.02 0.03
0.05 0.04 0.04 0.03 0.03 0.03 0.04 0.05 0.06 0.07 0.08 0.08 0.08 0.08 0.10 0.10 0.09 0.08 0.08 0.07 0.07 0.06 0.05 0.06 0.06 0.06 0.07 0.07 0.06 0.05 0.05 0.03 0.02 0.02 0.02 0.01 0.01 0.02
0.05 0.04 0.03 0.03 0.02 0.04 0.06 0.08 0.08 0.08 0.09 0.09 0.09 0.09 0.09 0.08 0.07 0.08 0.09 0.09 0.08 0.07 0.07 0.07 0.07 0.06 0.06 0.06 0.05 0.06 0.07 0.05 0.04 0.03 0.02 0.02 0.01 0.02
0.05 0.05 0.03 0.02 0.02 0.03 0.05 0.07 0.08 0.08 0.07 0.07 0.07 0.07 0.07 0.07 0.08 0.10 0.12 0.11 0.11 0.09 0.08 0.07 0.06 0.07 0.07 0.06 0.06 0.06 0.06 0.06 0.05 0.04 0.03 0.02 0.01 0.01
0.04 0.04 0.02 0.02 0.02 0.03 0.04 0.05 0.06 0.07 0.06 0.06 0.07 0.08 0.08 0.09 0.11 0.12 0.13 0.13 0.12 0.11 0.10 0.09 0.08 0.07 0.06 0.05 0.05 0.05 0.05 0.06 0.06 0.06 0.06 0.04 0.02 0.01
0.03 0.03 0.03 0.03 0.03 0.04 0.04 0.05 0.05 0.06 0.06 0.06 0.06 0.07 0.07 0.07 0.08 0.10 0.11 0.11 0.10 0.10 0.10 0.11 0.10 0.09 0.08 0.06 0.05 0.05 0.05 0.05 0.05 0.06 0.06 0.05 0.03 0.03
0.03 0.04 0.04 0.04 0.04 0.04 0.05 0.06 0.05 0.05 0.05 0.05 0.05 0.06 0.06 0.06 0.07 0.09 0.09 0.09 0.08 0.08 0.09 0.09 0.09 0.10 0.10 0.08 0.05 0.05 0.05 0.06 0.06 0.06 0.06 0.06 0.06 0.05
0.02 0.03 0.03 0.03 0.03 0.04 0.05 0.07 0.06 0.05 0.06 0.06 0.06 0.06 0.06 0.06 0.06 0.07 0.07 0.07 0.06 0.07 0.08 0.08 0.08 0.09 0.09 0.08 0.06 0.05 0.05 0.06 0.06 0.07 0.07 0.08 0.07 0.06
0.03 0.03 0.03 0.03 0.04 0.05 0.06 0.07 0.06 0.06 0.07 0.07 0.07 0.08 0.08 0.07 0.07 0.06 0.06 0.05 0.05 0.05 0.07 0.08 0.07 0.07 0.07 0.08 0.09 0.07 0.05 0.05 0.06 0.07 0.07 0.06 0.05 0.05
0.04 0.04 0.03 0.03 0.04 0.05 0.06 0.07 0.07 0.07 0.07 0.08 0.08 0.10 0.10 0.09 0.08 0.07 0.07 0.06 0.05 0.05 0.07 0.07 0.07 0.06 0.06 0.07 0.09 0.07 0.06 0.05 0.04 0.05 0.05 0.06 0.05 0.05
0.05 0.05 0.04 0.03 0.04 0.05 0.05 0.06 0.07 0.07 0.08 0.08 0.10 0.10 0.10 0.09 0.09 0.08 0.07 0.06 0.06 0.05 0.06 0.06 0.06 0.06 0.06 0.06 0.06 0.06 0.06 0.05 0.04 0.04 0.05 0.06 0.05 0.05
0.05 0.04 0.04 0.04 0.05 0.05 0.04 0.05 0.06 0.06 0.06 0.06 0.06 0.07 0.07 0.07 0.07 0.07 0.06 0.06 0.05 0.04 0.05 0.04 0.04 0.04 0.04 0.05 0.05 0.05 0.06 0.05 0.05 0.05 0.04 0.05 0.05 0.03
MSLP
1014.74 1015.14 1015.55 1015.94 1016.31 1016.65 1016.94 1017.17 1017.37 1017.52 1017.65 1017.79 1017.94 1018.13 1018.38 1018.69 1019.06 1019.49 1019.96 1020.46 1020.96 1021.45 1021.89 1022.30 1022.65 1022.95 1023.21 1023.43 1023.65 1023.86 1024.06 1024.28 1024.49 1024.68 1024.85 1024.97 1025.03 1025.03
1014.10 1014.51 1014.92 1015.33 1015.72 1016.08 1016.42 1016.73 1017.02 1017.28 1017.53 1017.78 1018.04 1018.33 1018.65 1019.01 1019.42 1019.86 1020.32 1020.81 1021.29 1021.75 1022.18 1022.57 1022.91 1023.21 1023.46 1023.68 1023.88 1024.07 1024.25 1024.44 1024.62 1024.78 1024.93 1025.02 1025.06 1025.03
1013.47 1013.88 1014.30 1014.71 1015.12 1015.52 1015.91 1016.29 1016.66 1017.02 1017.38 1017.75 1018.12 1018.50 1018.90 1019.32 1019.75 1020.20 1020.66 1021.13 1021.59 1022.03 1022.44 1022.81 1023.14 1023.43 1023.68 1023.89 1024.07 1024.24 1024.40 1024.56 1024.71 1024.84 1024.96 1025.03 1025.05 1025.00
1012.85 1013.27 1013.70 1014.12 1014.55 1014.98 1015.41 1015.85 1016.30 1016.75 1017.21 1017.67 1018.14 1018.61 1019.07 1019.54 1020.00 1020.46 1020.91 1021.36 1021.79 1022.21 1022.60 1022.96 1023.28 1023.55 1023.79 1023.99 1024.17 1024.32 1024.46 1024.60 1024.73 1024.85 1024.94 1025.00 1025.01 1024.95
1012.25 1012.68 1013.11 1013.54 1013.99 1014.45 1014.92 1015.41 1015.92 1016.44 1016.98 1017.52 1018.06 1018.60 1019.11 1019.61 1020.09 1020.55 1020.99 1021.42 1021.83 1022.23 1022.60 1022.94 1023.25 1023.52 1023.76 1023.96 1024.13 1024.28 1024.42 1024.54 1024.67 1024.78 1024.87 1024.92 1024.93 1024.87
1011.66 1012.08 1012.51 1012.96 1013.42 1013.90 1014.41 1014.94 1015.49 1016.07 1016.66 1017.26 1017.85 1018.43 1018.98 1019.49 1019.98 1020.43 1020.87 1021.27 1021.67 1022.04 1022.40 1022.73 1023.04 1023.31 1023.54 1023.75 1023.93 1024.09 1024.23 1024.37 1024.50 1024.62 1024.72 1024.78 1024.79 1024.74
1011.05 1011.46 1011.90 1012.35 1012.83 1013.34 1013.86 1014.42 1015.01 1015.62 1016.24 1016.87 1017.48 1018.08 1018.64 1019.16 1019.64 1020.09 1020.51 1020.90 1021.28 1021.64 1021.99 1022.32 1022.62 1022.90 1023.15 1023.37 1023.57 1023.75 1023.91 1024.07 1024.23 1024.37 1024.49 1024.57 1024.59 1024.54
1010.43 1010.84 1011.27 1011.73 1012.22 1012.74 1013.29 1013.86 1014.47 1015.09 1015.72 1016.35 1016.98 1017.57 1018.12 1018.64 1019.11 1019.54 1019.95 1020.33 1020.70 1021.06 1021.40 1021.73 1022.05 1022.34 1022.61 1022.85 1023.07 1023.28 1023.47 1023.66 1023.85 1024.02 1024.16 1024.25 1024.29 1024.24
1009.83 1010.22 1010.65 1011.12 1011.62 1012.14 1012.70 1013.29 1013.89 1014.51 1015.14 1015.76 1016.37 1016.94 1017.48 1017.98 1018.44 1018.86 1019.26 1019.63 1019.99 1020.35 1020.70 1021.04 1021.36 1021.67 1021.96 1022.23 1022.48 1022.72 1022.94 1023.16 1023.37 1023.56 1023.72 1023.83 1023.87 1023.83
1009.26 1009.64 1010.08 1010.55 1011.06 1011.59 1012.15 1012.74 1013.34 1013.95 1014.56 1015.16 1015.74 1016.29 1016.80 1017.28 1017.72 1018.13 1018.51 1018.88 1019.25 1019.61 1019.96 1020.31 1020.65 1020.98 1021.29 1021.57 1021.84 1022.10 1022.35 1022.59 1022.81 1023.02 1023.19 1023.30 1023.34 1023.29
1008.76 1009.16 1009.59 1010.07 1010.59 1011.13 1011.69 1012.27 1012.86 1013.45 1014.03 1014.61 1015.16 1015.68 1016.17 1016.62 1017.04 1017.44 1017.82 1018.19 1018.55 1018.91 1019.27 1019.63 1019.98 1020.31 1020.63 1020.93 1021.21 1021.47 1021.73 1021.97 1022.19 1022.39 1022.56 1022.67 1022.70 1022.65
1008.38 1008.78 1009.23 1009.72 1010.24 1010.78 1011.34 1011.91 1012.48 1013.05 1013.61 1014.16 1014.68 1015.18 1015.64 1016.08 1016.49 1016.87 1017.24 1017.60 1017.96 1018.32 1018.68 1019.04 1019.38 1019.71 1020.03 1020.32 1020.59 1020.85 1021.09 1021.32 1021.53 1021.71 1021.86 1021.96 1021.98 1021.92
1008.13 1008.54 1009.00 1009.49 1010.01 1010.55 1011.10 1011.66 1012.22 1012.77 1013.31 1013.83 1014.34 1014.81 1015.26 1015.68 1016.07 1016.45 1016.81 1017.17 1017.52 1017.86 1018.21 1018.55 1018.89 1019.20 1019.50 1019.77 1020.02 1020.25 1020.46 1020.66 1020.84 1021.00 1021.12 1021.20 1021.21 1021.15
1007.99 1008.42 1008.88 1009.37 1009.88 1010.40 1010.94 1011.48 1012.02 1012.56 1013.08 1013.60 1014.09 1014.55 1014.99 1015.41 1015.80 1016.16 1016.52 1016.86 1017.19 1017.52 1017.85 1018.16 1018.47 1018.76 1019.02 1019.26 1019.48 1019.67 1019.85 1020.01 1020.15 1020.27 1020.37 1020.42 1020.43 1020.38
1007.93 1008.36 1008.81 1009.28 1009.77 1010.27 1010.79 1011.31 1011.83 1012.36 1012.88 1013.39 1013.88 1014.35 1014.80 1015.22 1015.60 1015.97 1016.31 1016.63 1016.95 1017.25 1017.55 1017.83 1018.10 1018.35 1018.58 1018.78 1018.96 1019.12 1019.26 1019.38 1019.48 1019.57 1019.64 1019.67 1019.68 1019.64
1007.92 1008.32 1008.74 1009.18 1009.63 1010.10 1010.58 1011.07 1011.58 1012.10 1012.62 1013.14 1013.65 1014.14 1014.60 1015.03 1015.42 1015.79 1016.12 1016.43 1016.72 1016.99 1017.26 1017.50 1017.74 1017.95 1018.14 1018.31 1018.46 1018.58 1018.69 1018.78 1018.85 1018.91 1018.95 1018.98 1018.99 1018.97
1007.89 1008.25 1008.62 1009.00 1009.40 1009.81 1010.25 1010.71 1011.20 1011.71 1012.25 1012.78 1013.32 1013.84 1014.33 1014.78 1015.19 1015.56 1015.89 1016.19 1016.45 1016.70 1016.93 1017.14 1017.34 1017.52 1017.69 1017.84 1017.96 1018.07 1018.15 1018.22 1018.27 1018.32 1018.35 1018.37 1018.38 1018.38
1007.80 1008.10 1008.40 1008.71 1009.03 1009.38 1009.77 1010.19 1010.66 1011.17 1011.72 1012.28 1012.85 1013.40 1013.93 1014.41 1014.85 1015.23 1015.56 1015.85 1016.10 1016.32 1016.52 1016.71 1016.89 1017.05 1017.21 1017.34 1017.47 1017.57 1017.65 1017.72 1017.77 1017.81 1017.83 1017.85 1017.86 1017.87
1007.63 1007.86 1008.08 1008.30 1008.54 1008.82 1009.15 1009.53 1009.98 1010.48 1011.04 1011.63 1012.23 1012.83 1013.39 1013.91 1014.37 1014.77 1015.10 1015.39 1015.63 1015.83 1016.02 1016.19 1016.36 1016.52 1016.68 1016.83 1016.97 1017.08 1017.18 1017.26 1017.33 1017.37 1017.40 1017.42 1017.43 1017.43
1007.36 1007.52 1007.65 1007.79 1007.95 1008.16 1008.43 1008.77 1009.19 1009.69 1010.25 1010.86 1011.50 1012.13 1012.73 1013.28 1013.76 1014.18 1014.53 1014.81 1015.05 1015.25 1015.43 1015.60 1015.77 1015.94 1016.12 1016.29 1016.45 1016.60 1016.73 1016.84 1016.93 1016.98 1017.02 1017.04 1017.05 1017.05
1006.99 1007.08 1007.14 1007.21 1007.30 1007.44 1007.65 1007.95 1008.35 1008.84 1009.41 1010.03 1010.69 1011.34 1011.97 1012.54 1013.05 1013.48 1013.84 1014.13 1014.37 1014.57 1014.76 1014.94 1015.12 1015.31 1015.51 1015.72 1015.92 1016.11 1016.28 1016.42 1016.54 1016.62 1016.67 1016.69 1016.69 1016.68
1006.52 1006.56 1006.57 1006.58 1006.61 1006.70 1006.87 1007.14 1007.51 1007.99 1008.55 1009.18 1009.85 1010.52 1011.16 1011.75 1012.28 1012.72 1013.09 1013.38 1013.63 1013.84 1014.03 1014.22 1014.42 1014.64 1014.87 1015.11 1015.35 1015.58 1015.79 1015.98 1016.12 1016.23 1016.30 1016.33 1016.34 1016.32
1005.95 1005.96 1005.94 1005.91 1005.91 1005.97 1006.11 1006.36 1006.71 1007.17 1007.73 1008.35 1009.02 1009.69 1010.34 1010.94 1011.47 1011.92 1012.30 1012.60 1012.85 1013.07 1013.28 1013.48 1013.70 1013.94 1014.19 1014.46 1014.74 1015.01 1015.26 1015.47 1015.65 1015.79 1015.88 1015.93 1015.94 1015.93
Thickness
5669 5668 5667 5667 5667 5667 5667 5664 5659 5657 5660 5665 5668 5672 5673 5672 5671 5669 5668 5666 5665 5664 5663 5663 5662 5662 5662 5663 5663 5664 5665 5665 5665 5665 5664 5664 5664 5665
5664 5662 5661 5662 5662 5662 5661 5660 5659 5655 5655 5661 5663 5666 5666 5667 5665 5664 5663 5661 5661 5660 5659 5658 5658 5658 5658 5658 5659 5660 5661 5661 5661 5661 5660 5660 5660 5660
5660 5658 5656 5656 5655 5655 5655 5654 5654 5653 5651 5656 5659 5661 5660 5660 5659 5658 5657 5656 5656 5656 5655 5654 5654 5654 5654 5654 5655 5655 5656 5657 5657 5657 5656 5656 5656 5656
5655 5653 5652 5652 5650 5650 5649 5649 5649 5650 5649 5649 5652 5652 5653 5653 5653 5652 5652 5652 5651 5651 5650 5650 5650 5650 5650 5650 5651 5651 5652 5653 5653 5653 5653 5652 5651 5651
5652 5650 5649 5647 5646 5645 5644 5644 5644 5646 5645 5644 5645 5646 5646 5647 5645 5645 5646 5646 5646 5646 5646 5646 5646 5646 5646 5647 5647 5648 5648 5649 5649 5649 5648 5647 5647 5647
5649 5647 5646 5644 5642 5640 5639 5639 5639 5638 5639 5638 5638 5639 5639 5639 5638 5637 5637 5638 5639 5640 5640 5640 5641 5642 5643 5644 5644 5644 5644 5645 5645 5644 5644 5643 5643 5642
5644 5643 5642 5641 5639 5637 5636 5634 5633 5632 5632 5632 5631 5632 5632 5630 5630 5631 5630 5631 5632 5634 5634 5635 5635 5636 5638 5639 5640 5640 5641 5641 5641 5640 5640 5639 5639 5638
5638 5637 5637 5636 5635 5632 5631 5630 5629 5627 5626 5625 5625 5625 5625 5625 5625 5624 5623 5623 5624 5629 5627 5628 5630 5632 5634 5636 5638 5638 5638 5638 5637 5637 5636 5636 5635 5635
5632 5631 5631 5632 5629 5628 5626 5625 5624 5623 5623 5621 5620 5621 5621 5621 5619 5618 5618 5618 5619 5623 5622 5623 5625 5626 5630 5634 5635 5635 5635 5635 5635 5634 5633 5633 5632 5631
5628 5627 5626 5625 5625 5622 5621 5620 5619 5619 5619 5618 5618 5618 5618 5618 5616 5614 5614 5614 5616 5618 5619 5617 5620 5623 5626 5628 5631 5632 5632 5632 5632 5631 5630 5629 5628 5627
5623 5623 5622 5620 5618 5617 5615 5614 5614 5614 5615 5615 5615 5614 5614 5613 5611 5608 5607 5606 5608 5611 5614 5613 5616 5617 5619 5622 5625 5626 5627 5627 5627 5626 5626 5625 5624 5622
5618 5617 5616 5614 5612 5610 5609 5609 5608 5609 5609 5610 5609 5610 5610 5610 5608 5606 5605 5603 5603 5605 5610 5609 5610 5610 5611 5616 5619 5619 5620 5621 5622 5622 5621 5620 5618 5615
5612 5611 5610 5608 5606 5604 5603 5603 5603 5603 5604 5604 5605 5606 5607 5607 5606 5604 5604 5603 5602 5602 5606 5605 5604 5605 5606 5608 5611 5614 5615 5616 5616 5616 5615 5615 5613 5611
5606 5606 5605 5602 5600 5599 5598 5599 5598 5597 5599 5600 5600 5601 5602 5602 5603 5603 5603 5603 5602 5602 5603 5602 5601 5600 5600 5601 5604 5608 5610 5611 5612 5612 5611 5610 5608 5606
5601 5600 5598 5596 5594 5595 5595 5594 5593 5594 5595 5595 5596 5597 5598 5599 5599 5599 5600 5599 5599 5599 5600 5599 5598 5598 5598 5599 5600 5602 5603 5605 5607 5607 5606 5605 5604 5602
5594 5594 5593 5592 5591 5591 5591 5591 5591 5592 5592 5592 5593 5593 5594 5594 5594 5594 5593 5593 5593 5594 5596 5596 5595 5595 5594 5596 5596 5597 5598 5599 5602 5602 5602 5601 5600 5600
5587 5588 5589 5589 5589 5589 5589 5589 5589 5589 5588 5589 5588 5588 5588 5589 5589 5590 5589 5589 5588 5588 5589 5590 5591 5591 5591 5591 5591 5592 5593 5594 5596 5596 5595 5595 5595 5596
5580 5583 5585 5586 5586 5586 5585 5585 5585 5585 5585 5585 5585 5584 5584 5584 5584 5585 5585 5584 5584 5585 5585 5585 5585 5583 5583 5584 5586 5587 5587 5588 5590 5591 5591 5589 5589 5590
5577 5581 5582 5583 5584 5583 5582 5581 5581 5581 5581 5580 5580 5580 5579 5579 5579 5579 5579 5579 5580 5580 5580 5580 5579 5577 5576 5577 5580 5582 5583 5583 5584 5585 5585 5585 5585 5585
5579 5580 5580 5581 5580 5579 5577 5576 5576 5576 5575 5575 5575 5575 5575 5575 5575 5575 5575 5574 5574 5574 5574 5575 5574 5574 5573 5574 5574 5576 5577 5577 5578 5578 5579 5579 5579 5579
5578 5577 5577 5577 5576 5574 5573 5572 5572 5571 5570 5570 5571 5571 5571 5571 5571 5571 5571 5569 5569 5569 5568 5569 5570 5571 5571 5570 5569 5569 5570 5571 5572 5572 5573 5573 5572 5572
5574 5573 5573 5572 5571 5569 5568 5567 5566 5565 5565 5566 5566 5566 5566 5566 5565 5565 5565 5564 5564 5564 5564 5564 5565 5564 5564 5564 5563 5563 5563 5563 5564 5566 5566 5568 5568 5567
5570 5569 5568 5567 5566 5565 5563 5562 5561 5560 5560 5559 5559 5559 5559 5559 5560 5560 5560 5560 5559 5559 5559 5558 5558 5558 5558 5558 5558 5557 5557 5557 5557 5558 5558 5561 5563 5563